{"data":{"norad_id":59672,"epoch":"2026-05-25T04:50:47.819904Z","epoch_age_seconds":64431,"freshness":"FRESH","line1":"1 59672U 24084U   26145.20194236  .00001187  00000+0  52663-4 0  9994","line2":"2 59672  43.0003 326.3252 0001207 268.7944  91.2770 15.27576462116115","mean_motion":15.27576462,"eccentricity":0.0001207,"inclination_deg":43.0003,"raan_deg":326.3252,"arg_perigee_deg":268.7944,"mean_anomaly_deg":91.277,"bstar":5.2663e-5,"rev_number":11611,"period_min":94.266967043644,"perigee_km":482.23154366439,"apogee_km":483.88783654539,"semimajor_km":6861.1966901049,"source":"CELESTRAK","updated_at":"2026-05-25T13:38:19.021572Z"}}